Total_Precipitation_Accumulation
0.35 0.49 0.72 1.00 1.47 2.14 2.80 3.05 2.85 2.23 1.82 1.57 1.44 1.26 1.11 1.01 0.94 0.87 0.78 0.69 0.69 0.64 0.64 0.61 0.62 0.68 0.67 0.66 0.80 0.92 0.92 0.75 0.90 0.96 0.75 0.59 0.50 0.46 0.42 0.34 0.29 0.26 0.25
0.41 0.70 1.05 1.46 1.91 2.22 2.42 2.36 2.01 1.44 1.10 0.89 0.75 0.62 0.54 0.54 0.54 0.51 0.51 0.53 0.54 0.54 0.53 0.50 0.48 0.48 0.51 0.52 0.57 0.68 0.68 0.60 0.71 0.79 0.71 0.50 0.41 0.34 0.23 0.21 0.17 0.14 0.18
0.78 1.33 1.80 2.00 2.00 1.94 1.68 1.28 0.93 0.67 0.57 0.44 0.36 0.27 0.23 0.23 0.24 0.26 0.29 0.32 0.33 0.33 0.33 0.32 0.32 0.34 0.38 0.41 0.47 0.54 0.56 0.50 0.49 0.58 0.65 0.46 0.31 0.27 0.23 0.20 0.18 0.17 0.17
1.05 1.54 1.84 1.80 1.58 1.27 0.87 0.57 0.43 0.35 0.30 0.25 0.24 0.22 0.18 0.18 0.19 0.20 0.22 0.23 0.22 0.23 0.23 0.21 0.21 0.21 0.25 0.31 0.34 0.42 0.52 0.50 0.41 0.43 0.50 0.47 0.39 0.31 0.25 0.24 0.20 0.21 0.19
0.80 0.91 0.94 0.88 0.72 0.52 0.46 0.43 0.35 0.35 0.35 0.29 0.26 0.23 0.19 0.18 0.19 0.20 0.21 0.24 0.25 0.23 0.23 0.22 0.20 0.20 0.20 0.23 0.27 0.34 0.43 0.50 0.45 0.41 0.47 0.53 0.48 0.36 0.29 0.23 0.23 0.27 0.21
0.46 0.39 0.31 0.26 0.24 0.22 0.23 0.24 0.24 0.32 0.38 0.36 0.31 0.28 0.24 0.21 0.19 0.17 0.18 0.20 0.22 0.25 0.25 0.25 0.26 0.26 0.25 0.25 0.25 0.26 0.31 0.42 0.50 0.50 0.50 0.53 0.51 0.38 0.32 0.25 0.22 0.27 0.23
0.33 0.35 0.30 0.23 0.19 0.15 0.14 0.13 0.13 0.16 0.19 0.23 0.24 0.24 0.24 0.21 0.19 0.17 0.14 0.16 0.17 0.20 0.22 0.23 0.24 0.27 0.29 0.29 0.27 0.27 0.27 0.34 0.43 0.46 0.50 0.50 0.49 0.52 0.50 0.43 0.35 0.36 0.37
0.21 0.24 0.22 0.18 0.14 0.10 0.08 0.06 0.06 0.07 0.07 0.08 0.10 0.12 0.15 0.16 0.18 0.21 0.17 0.16 0.18 0.19 0.20 0.20 0.19 0.21 0.26 0.31 0.33 0.31 0.31 0.34 0.36 0.37 0.50 0.55 0.50 0.59 0.62 0.63 0.64 0.55 0.54
0.10 0.10 0.09 0.07 0.06 0.05 0.05 0.04 0.03 0.03 0.03 0.03 0.05 0.06 0.09 0.13 0.15 0.17 0.17 0.17 0.21 0.21 0.20 0.20 0.20 0.20 0.22 0.26 0.30 0.31 0.33 0.36 0.36 0.40 0.49 0.57 0.64 0.67 0.63 0.72 0.77 0.75 0.67
0.06 0.06 0.05 0.04 0.03 0.02 0.02 0.02 0.02 0.02 0.01 0.01 0.02 0.02 0.04 0.07 0.10 0.10 0.12 0.14 0.16 0.18 0.19 0.19 0.18 0.18 0.20 0.21 0.24 0.26 0.33 0.39 0.45 0.51 0.56 0.59 0.66 0.75 0.68 0.73 0.78 0.77 0.78
0.03 0.03 0.02 0.02 0.02 0.01 0.01 0.02 0.02 0.02 0.02 0.01 0.01 0.01 0.03 0.04 0.06 0.10 0.13 0.14 0.13 0.12 0.13 0.15 0.16 0.18 0.20 0.23 0.28 0.31 0.36 0.46 0.58 0.67 0.70 0.73 0.75 0.78 0.77 0.83 0.84 0.76 0.81
0.01 0.01 0.01 0.01 0.01 0.01 0.01 0.02 0.02 0.02 0.02 0.02 0.02 0.01 0.01 0.02 0.04 0.07 0.10 0.11 0.12 0.11 0.11 0.12 0.13 0.13 0.14 0.19 0.29 0.40 0.41 0.44 0.52 0.74 0.96 0.98 0.98 0.89 0.82 0.90 0.88 0.84 0.94
0.00 0.00 0.00 0.01 0.01 0.01 0.02 0.02 0.02 0.01 0.01 0.01 0.01 0.01 0.01 0.01 0.02 0.03 0.05 0.07 0.09 0.11 0.11 0.12 0.12 0.11 0.10 0.12 0.20 0.33 0.38 0.46 0.60 0.76 0.89 1.01 1.12 1.02 0.92 0.89 0.90 0.93 1.01
0.00 0.00 0.00 0.00 0.00 0.01 0.01 0.01 0.00 0.00 0.00 0.01 0.01 0.01 0.02 0.02 0.02 0.02 0.03 0.04 0.07 0.09 0.11 0.13 0.13 0.13 0.11 0.11 0.16 0.24 0.31 0.44 0.62 0.68 0.62 0.74 0.99 1.09 1.01 0.90 0.85 0.90 0.94
0.00 0.00 0.00 0.01 0.01 0.01 0.01 0.02 0.02 0.03 0.03 0.04 0.04 0.05 0.05 0.06 0.06 0.06 0.06 0.06 0.07 0.08 0.11 0.14 0.15 0.14 0.12 0.10 0.17 0.26 0.22 0.26 0.35 0.38 0.36 0.42 0.61 0.89 1.05 1.01 0.90 0.88 0.85
0.03 0.04 0.04 0.05 0.04 0.04 0.04 0.04 0.04 0.04 0.05 0.05 0.05 0.04 0.05 0.05 0.06 0.06 0.06 0.06 0.08 0.11 0.16 0.19 0.19 0.19 0.13 0.11 0.13 0.15 0.17 0.20 0.23 0.24 0.26 0.26 0.29 0.42 0.65 0.86 0.97 1.01 0.93
0.10 0.07 0.05 0.03 0.02 0.01 0.01 0.01 0.01 0.01 0.02 0.03 0.03 0.04 0.05 0.05 0.06 0.06 0.07 0.09 0.12 0.16 0.21 0.24 0.26 0.27 0.26 0.18 0.12 0.09 0.12 0.16 0.20 0.23 0.25 0.19 0.17 0.24 0.31 0.45 0.61 0.76 0.83
0.03 0.01 0.00 0.00 0.00 0.00 0.00 0.01 0.01 0.01 0.02 0.02 0.03 0.04 0.06 0.07 0.08 0.11 0.13 0.17 0.20 0.22 0.26 0.29 0.32 0.36 0.35 0.26 0.17 0.13 0.12 0.17 0.21 0.25 0.25 0.22 0.20 0.22 0.27 0.33 0.36 0.43 0.52
0.00 0.00 0.00 0.00 0.00 0.01 0.01 0.01 0.01 0.02 0.02 0.04 0.07 0.09 0.11 0.13 0.16 0.20 0.24 0.28 0.31 0.30 0.31 0.32 0.37 0.41 0.43 0.33 0.21 0.18 0.19 0.24 0.25 0.26 0.26 0.26 0.24 0.22 0.21 0.28 0.31 0.33 0.38
0.00 0.00 0.00 0.00 0.01 0.01 0.02 0.02 0.02 0.03 0.04 0.05 0.08 0.11 0.17 0.23 0.26 0.30 0.34 0.38 0.40 0.39 0.39 0.37 0.40 0.45 0.50 0.44 0.26 0.21 0.25 0.32 0.33 0.37 0.37 0.31 0.29 0.26 0.19 0.23 0.27 0.27 0.31
0.00 0.00 0.00 0.00 0.01 0.02 0.03 0.04 0.06 0.06 0.06 0.07 0.09 0.12 0.18 0.28 0.31 0.36 0.41 0.46 0.47 0.48 0.49 0.46 0.46 0.50 0.53 0.52 0.33 0.24 0.26 0.37 0.47 0.48 0.47 0.43 0.32 0.23 0.19 0.21 0.26 0.24 0.29
0.00 0.00 0.00 0.00 0.01 0.03 0.06 0.08 0.10 0.09 0.10 0.12 0.14 0.15 0.22 0.30 0.32 0.42 0.46 0.52 0.56 0.58 0.59 0.60 0.58 0.58 0.57 0.52 0.43 0.27 0.23 0.35 0.54 0.62 0.63 0.61 0.48 0.32 0.25 0.22 0.23 0.21 0.23
0.00 0.00 0.00 0.01 0.02 0.04 0.08 0.12 0.13 0.13 0.15 0.17 0.17 0.21 0.25 0.37 0.52 0.56 0.53 0.57 0.62 0.62 0.62 0.67 0.70 0.70 0.70 0.60 0.43 0.32 0.24 0.30 0.48 0.64 0.72 0.66 0.56 0.47 0.36 0.29 0.25 0.22 0.21
0.00 0.00 0.01 0.02 0.04 0.05 0.08 0.12 0.15 0.19 0.22 0.22 0.21 0.23 0.30 0.43 0.67 0.80 0.74 0.68 0.68 0.67 0.68 0.66 0.67 0.73 0.78 0.72 0.56 0.41 0.31 0.35 0.48 0.58 0.60 0.62 0.62 0.61 0.54 0.42 0.32 0.25 0.23
0.01 0.01 0.03 0.05 0.06 0.07 0.09 0.13 0.18 0.25 0.28 0.26 0.24 0.25 0.32 0.46 0.68 0.85 0.85 0.71 0.69 0.66 0.66 0.65 0.65 0.64 0.63 0.61 0.53 0.46 0.45 0.51 0.58 0.60 0.67 0.66 0.68 0.67 0.65 0.57 0.44 0.35 0.31
0.03 0.04 0.06 0.08 0.10 0.12 0.15 0.17 0.22 0.29 0.35 0.34 0.29 0.30 0.35 0.46 0.66 0.89 0.96 0.76 0.58 0.56 0.53 0.48 0.46 0.45 0.39 0.35 0.36 0.34 0.34 0.41 0.47 0.49 0.65 0.72 0.73 0.74 0.71 0.66 0.57 0.48 0.40